Location: Bogis-Bossey
(46.3500°N, 6.1667°E)
Time: 18:33:44
(UTC+00:00)

Cosmos 1378 - Pass Details

Date: 17 August 2022
Orbit: 479 x 488 km, 82.5° (Epoch: 30 September)

Event Time Altitude Azimuth Distance (km) Brightness Sun altitude
Rises 20:36:45 0° 357° (N) 2,562 7.5 -17.7°
Reaches altitude 10° 20:38:57 10° 4° (N) 1,675 6.3 -18.0°
Maximum altitude 20:42:27 42° 77° (ENE) 701 3.6 -18.4°
Enters shadow 20:42:39 42° 86° (E) 706 3.5 -18.5°
